Weather History for KSNC - October, 2012

Change the Weather History Date:

Friday, October 26, 2012

  Actual Average (KHVN) Record (KHVN)
Temperature  
Mean Temperature 58 °F -  
Max Temperature 66 °F 56 °F 76 °F (1971)
Min Temperature 51 °F 41 °F 32 °F (2013)
Degree Days  
Heating Degree Days 6    
Growing Degree Days 8 (Base 50)    
Moisture  
Dew Point 51 °F    
Average Humidity 76    
Maximum Humidity 94    
Minimum Humidity 63    
Precipitation  
Precipitation 0.00 in - - ()
Sea Level Pressure  
Sea Level Pressure 30.20 in    
Wind  
Wind Speed 2 mph (South)    
Max Wind Speed 9 mph    
Max Gust Speed -    
Visibility 10 miles    
Events      
Averages and records for this station are not official NWS values.
T = Trace of Precipitation, MM = Missing Value Source: NWS Daily Summary

Daily Weather History Graph

Daily Weather History Graph

Search for Another Location

Airport or City:

Trip Planner

Search our weather history database for the weather conditions in past years. The results will help you decide how hot, cold, wet, or windy it might be!

Date:

Astronomy

Oct. 26, 2012 Rise Set
Actual Time 7:14 AM EDT 5:52 PM EDT
Civil Twilight 6:46 AM EDT 6:20 PM EDT
Nautical Twilight 6:14 AM EDT 6:53 PM EDT
Astronomical Twilight 5:42 AM EDT 7:25 PM EDT
Moon 4:08 PM EDT (10/26) 4:06 AM EDT (10/26)
Length of Visible Light 11h 34m
Length of Day
10h 37m
Waxing Gibbous, 91% of the Moon is Illuminated
Oct 26
Waxing Gibbous
Oct 29
Full
Nov 6
Last Quarter
Nov 13
New
Nov 20
First Quarter

Hourly Weather History & Observations

Time (EDT) Temp. Dew Point Humidity Pressure Visibility Wind Dir Wind Speed Gust Speed Precip Events Conditions
12:15 AM 53.6 °F 48.2 °F 82% 30.26 in 10.0 mi Calm Calm - N/A   Overcast
12:35 AM 53.6 °F 48.2 °F 82% 30.25 in 10.0 mi Calm Calm - N/A   Overcast
1:35 AM 53.6 °F 50.0 °F 88% 30.26 in 10.0 mi Calm Calm - N/A   Overcast
1:55 AM 53.6 °F 50.0 °F 88% 30.25 in 10.0 mi Calm Calm - N/A   Overcast
2:15 AM 53.6 °F 48.2 °F 82% 30.25 in 10.0 mi Calm Calm - N/A   Overcast
2:35 AM 53.6 °F 50.0 °F 88% 30.24 in 10.0 mi Calm Calm - N/A   Overcast
2:55 AM 53.6 °F 48.2 °F 82% 30.24 in 10.0 mi Calm Calm - N/A   Overcast
3:15 AM 53.6 °F 50.0 °F 88% 30.24 in 10.0 mi Calm Calm - N/A   Overcast
3:35 AM 53.6 °F 50.0 °F 88% 30.24 in 10.0 mi Calm Calm - N/A   Overcast
3:55 AM 53.6 °F 50.0 °F 88% 30.24 in 10.0 mi Calm Calm - N/A   Overcast
4:15 AM 55.4 °F 50.0 °F 82% 30.24 in 10.0 mi Calm Calm - N/A   Overcast
4:35 AM 53.6 °F 50.0 °F 88% 30.24 in 10.0 mi Calm Calm - N/A   Overcast
4:55 AM 53.6 °F 51.8 °F 94% 30.24 in 10.0 mi Calm Calm - N/A   Overcast
5:15 AM 53.6 °F 50.0 °F 88% 30.24 in 10.0 mi Calm Calm - N/A   Mostly Cloudy
5:35 AM 53.6 °F 50.0 °F 88% 30.24 in 10.0 mi Calm Calm - N/A   Clear
5:55 AM 51.8 °F 50.0 °F 94% 30.24 in 10.0 mi Calm Calm - N/A   Partly Cloudy
6:15 AM 51.8 °F 50.0 °F 94% 30.23 in 10.0 mi Calm Calm - N/A   Mostly Cloudy
6:35 AM 51.8 °F 50.0 °F 94% 30.23 in 9.0 mi Calm Calm - N/A   Overcast
6:55 AM 51.8 °F 50.0 °F 94% 30.23 in 8.0 mi Calm Calm - N/A   Overcast
7:15 AM 51.8 °F 50.0 °F 94% 30.24 in 5.0 mi Calm Calm - N/A   Mostly Cloudy
7:35 AM 53.6 °F 51.8 °F 94% 30.24 in 8.0 mi Calm Calm - N/A   Mostly Cloudy
7:55 AM 55.4 °F 51.8 °F 88% 30.24 in 7.0 mi Calm Calm - N/A   Scattered Clouds
8:15 AM 55.4 °F 51.8 °F 88% 30.24 in 9.0 mi Calm Calm - N/A   Mostly Cloudy
8:35 AM 57.2 °F 51.8 °F 82% 30.25 in 10.0 mi Calm Calm - N/A   Mostly Cloudy
9:15 AM 59.0 °F 53.6 °F 82% 30.24 in 10.0 mi Calm Calm - N/A   Overcast
9:35 AM 60.8 °F 53.6 °F 77% 30.23 in 10.0 mi SSE 6.9 mph - N/A   Mostly Cloudy
10:15 AM 62.6 °F 53.6 °F 72% 30.23 in 10.0 mi South 4.6 mph - N/A   Overcast
10:35 AM 62.6 °F 53.6 °F 72% 30.24 in 10.0 mi South 4.6 mph - N/A   Overcast
10:55 AM 64.4 °F 53.6 °F 68% 30.23 in 10.0 mi WSW 6.9 mph - N/A   Mostly Cloudy
11:15 AM 64.4 °F 53.6 °F 68% 30.23 in 10.0 mi SW 4.6 mph - N/A   Mostly Cloudy
11:35 AM 64.4 °F 53.6 °F 68% 30.23 in 10.0 mi SW 4.6 mph - N/A   Mostly Cloudy
11:55 AM 64.4 °F 53.6 °F 68% 30.22 in 8.0 mi WSW 4.6 mph - N/A   Scattered Clouds
12:15 PM 64.4 °F 53.6 °F 68% 30.22 in 10.0 mi WSW 4.6 mph - N/A   Clear
12:35 PM 66.2 °F 53.6 °F 64% 30.21 in 10.0 mi SSE 6.9 mph - N/A   Mostly Cloudy
12:55 PM 64.4 °F 53.6 °F 68% 30.20 in 10.0 mi South 5.8 mph - N/A   Mostly Cloudy
1:15 PM 66.2 °F 53.6 °F 64% 30.19 in 7.0 mi SSW 6.9 mph - N/A   Scattered Clouds
1:35 PM 66.2 °F 53.6 °F 64% 30.19 in 10.0 mi South 6.9 mph - N/A   Mostly Cloudy
1:55 PM 64.4 °F 53.6 °F 68% 30.18 in 10.0 mi SSW 4.6 mph - N/A   Overcast
2:15 PM 64.4 °F 53.6 °F 68% 30.18 in 8.0 mi South 9.2 mph - N/A   Overcast
2:35 PM 64.4 °F 53.6 °F 68% 30.18 in 10.0 mi South 5.8 mph - N/A   Overcast
3:15 PM 64.4 °F 51.8 °F 64% 30.16 in 10.0 mi SE 4.6 mph - N/A   Overcast
3:35 PM 62.6 °F 51.8 °F 68% 30.15 in 10.0 mi SE 4.6 mph - N/A   Overcast
3:55 PM 62.6 °F 51.8 °F 68% 30.15 in 7.0 mi SE 4.6 mph - N/A   Overcast
4:15 PM 62.6 °F 51.8 °F 68% 30.15 in 10.0 mi SE 3.5 mph - N/A   Overcast
4:35 PM 62.6 °F 53.6 °F 72% 30.15 in 10.0 mi SE 4.6 mph - N/A   Overcast
4:55 PM 62.6 °F 53.6 °F 72% 30.14 in 10.0 mi SE 3.5 mph - N/A   Overcast
5:15 PM 62.6 °F 53.6 °F 72% 30.15 in 10.0 mi Calm Calm - N/A   Overcast
5:35 PM 62.6 °F 51.8 °F 68% 30.15 in 10.0 mi Calm Calm - N/A   Overcast
5:55 PM 60.8 °F 51.8 °F 72% 30.15 in 10.0 mi South 3.5 mph - N/A   Overcast
6:15 PM 60.8 °F 51.8 °F 72% 30.16 in 10.0 mi Calm Calm - N/A   Overcast
6:35 PM 60.8 °F 51.8 °F 72% 30.15 in 10.0 mi South 3.5 mph - N/A   Overcast
6:55 PM 60.8 °F 51.8 °F 72% 30.15 in 10.0 mi South 3.5 mph - N/A   Overcast
7:15 PM 60.8 °F 51.8 °F 72% 30.15 in 10.0 mi South 3.5 mph - N/A   Overcast
7:35 PM 60.8 °F 51.8 °F 72% 30.16 in 10.0 mi SSW 4.6 mph - N/A   Overcast
7:55 PM 60.8 °F 51.8 °F 72% 30.16 in 10.0 mi SSW 4.6 mph - N/A   Overcast
8:15 PM 60.8 °F 50.0 °F 68% 30.16 in 10.0 mi SSW 4.6 mph - N/A   Overcast
8:35 PM 60.8 °F 50.0 °F 68% 30.15 in 10.0 mi South 4.6 mph - N/A   Overcast
8:55 PM 60.8 °F 48.2 °F 63% 30.16 in 10.0 mi South 4.6 mph - N/A   Overcast
9:15 PM 60.8 °F 48.2 °F 63% 30.16 in 10.0 mi South 4.6 mph - N/A   Overcast
9:35 PM 60.8 °F 48.2 °F 63% 30.15 in 10.0 mi South 4.6 mph - N/A   Overcast
9:55 PM 60.8 °F 50.0 °F 68% 30.15 in 10.0 mi South 3.5 mph - N/A   Overcast
10:15 PM 59.0 °F 50.0 °F 72% 30.15 in 10.0 mi Calm Calm - N/A   Overcast
10:35 PM 60.8 °F 50.0 °F 68% 30.15 in 10.0 mi Calm Calm - N/A   Overcast
10:55 PM 59.0 °F 50.0 °F 72% 30.15 in 10.0 mi Calm Calm - N/A   Overcast
11:35 PM 59.0 °F 51.8 °F 77% 30.14 in 10.0 mi Calm Calm - N/A   Overcast
11:55 PM 59.0 °F 51.8 °F 77% 30.13 in 10.0 mi Calm Calm - N/A   Overcast